Location: Córrego Montividiu
(13.2496°S, 48.8603°W)
Time: 11:57:32
(UTC+00:00)

Orbus 7S? - Pass Details

Date: 11 March 2026
Orbit: 354 x 6170 km, 56.9° (Epoch: 30 September)

Event Time Altitude Azimuth Distance (km) Brightness Sun altitude
Rises 21:57:44 0° 314° (NW) 2,155 7.0 -7.1°
Reaches altitude 10° 21:59:28 10° 305° (NW) 1,370 6.2 -7.5°
Maximum altitude 22:02:03 40° 232° (SW) 681 4.4 -8.1°
Drops below altitude 10° 22:06:06 10° 161° (SSE) 2,147 6.2 -9.1°
Sets 22:09:32 0° 154° (SSE) 3,689 7.3 -9.9°
